sat.trackr.live / text

‹ back to catalog

STARLINK-33812

NORAD 63879 · 2025-094R

PAYLOAD ACTIVE UNKNOWN

§ Identity

Operator
Country
US
Launch date
2025-05-10
Launch site
AFWTR
Launch vehicle
Mass (kg)
RCS (m²)

Purposes: comms

External: N2YO · Heavens-Above · Gunter

§ Orbital elements

Epoch: 2026-05-25T03:10:53.792256Z

Period
96.11 min
Inclination
70.0022°
Eccentricity
0.0002566
Mean motion
14.98337849 rev/d
Perigee alt
570.2 km
Apogee alt
573.8 km
Semi-major
6,950.2 km
B*
2.8051e-4
RAAN
41.7119°
Arg perigee
269.4363°
Mean anomaly
90.6502°
Rev number
5,865

§ Raw data

STARLINK-338121 63879U 25094R   26145.13256704  .00003256  00000+0  28051-3 0  99932 63879  70.0022  41.7119 0002566 269.4363  90.6502 14.98337849 58653

JSON: /api/v1/satellites/63879 · /tle

For live sub-satellite position, see the globe view (requires WebGL).

§ Visibility from observer

Set your observer location to see the next 7 days of passes ≥ 10°. The values pass through the URL so the page stays shareable.

No JS? Fill the form by hand. The geolocation button needs JavaScript.